[[{"header":{"parameterUnit":"m.s-1","parameterCategory":1,"la1":30.2991,"la2":30.254,"lo1":-89.0895,"lo2":-89.0444,"dy":0.0017,"dx":0.0017,"nx":28,"ny":28,"refTime":"2024-03-19T21:00:00:Z","depth":0,"parameterNumber":2,"parameterNumberName":"U-component_of_WINDS"},"data":[0,0,0,0,0,0,0,0,0,0,0,0,0,0,0,0,0,0,0,0,0,0,0,0,0,0,0,0,0,0,0,0,0,0,0,0,0,0,0,0,0,0,0,0,0,0,0,0,0,0,0,0,0,0,0,0,0,0,-0.1336,-0.1336,0,-0.1306,-0.1305,-0.1305,-0.1271,-0.127,-0.127,-0.1269,-0.1237,-0.1237,-0.1236,0,0,0,0,0,0,0,0,0,0,0,0,0,-0.1365,-0.1365,-0.1336,-0.1336,-0.1336,-0.1306,-0.1305,-0.1305,-0.1271,-0.127,-0.127,-0.1269,-0.1237,-0.1237,-0.1236,0,0,0,0,0,0,0,0,0,0,0,0,0,-0.1345,-0.1365,-0.1336,-0.1315,-0.1313,-0.1306,-0.1305,-0.1305,-0.1271,-0.127,-0.1269,-0.1269,-0.1237,-0.1237,-0.1236,-0.1248,0,0,-0.1235,-0.1234,0,0,0,0,0,0,0,0,-0.1347,-0.1344,-0.1319,-0.1316,-0.1314,-0.1291,-0.1304,-0.1286,-0.1271,-0.1287,-0.1269,-0.1268,-0.1256,-0.1254,-0.125,-0.1246,-0.1245,-0.1235,-0.1234,-0.1234,-0.1234,0,0,0,0,0,0,0,-0.1348,-0.1346,-0.1324,-0.1318,-0.1315,-0.1307,-0.1303,-0.13,-0.1276,-0.1285,-0.1283,-0.128,-0.1254,-0.125,-0.1249,-0.1245,-0.1235,-0.1234,-0.1234,-0.1233,-0.125,-0.1251,0,0,0,0,0,0,-0.1353,-0.1347,-0.1325,-0.1323,-0.1329,-0.1307,-0.1303,-0.1299,-0.1276,-0.1272,-0.128,-0.1278,-0.1252,-0.1249,-0.1247,-0.126,-0.1234,-0.1233,-0.1233,-0.125,-0.1251,-0.1252,0,0,0,0,0,0,-0.1353,-0.1351,-0.1326,-0.1334,-0.1331,-0.1307,-0.1304,-0.1299,-0.1295,-0.1272,-0.1267,-0.1281,-0.1251,-0.1248,-0.1248,-0.1259,-0.1233,-0.1233,-0.1249,-0.125,-0.1251,-0.1286,0,0,0,0,0,0,-0.1354,-0.1352,-0.1356,-0.1335,-0.133,-0.1328,-0.1304,-0.1299,-0.1294,-0.1291,-0.1271,-0.1267,-0.125,-0.1249,-0.1248,-0.1257,-0.1232,-0.1248,-0.1249,-0.1251,-0.1284,-0.1288,-0.1292,0,0,0,0,0,-0.1356,-0.1366,-0.1356,-0.1354,-0.1335,-0.1329,-0.1326,-0.1307,-0.1295,-0.1299,-0.1285,-0.1268,-0.1258,-0.125,-0.1248,-0.1257,-0.1247,-0.1249,-0.1251,-0.1282,-0.1287,-0.1292,0,0,0,0,0,0,-0.1389,-0.1363,-0.1352,-0.1356,-0.1345,-0.1323,-0.1328,-0.1313,-0.1305,-0.1302,-0.1278,-0.1274,-0.1277,-0.1267,-0.1259,-0.1268,-0.125,-0.1251,-0.1274,-0.1279,-0.1283,-0.1286,-0.1232,0,0,0,0,0,-0.1397,-0.1394,-0.1371,-0.1377,-0.1372,-0.1351,-0.1348,-0.1334,-0.1321,-0.1316,-0.1301,-0.129,-0.1284,-0.1281,-0.1274,-0.1282,-0.1277,-0.1287,-0.1291,-0.1295,-0.1297,-0.1301,-0.1305,-0.1257,-0.1257,-0.1257,0,0,-0.1413,-0.1398,-0.1398,-0.1384,-0.1373,-0.1371,-0.1347,-0.1346,-0.1344,-0.1316,-0.1315,-0.1304,-0.129,-0.1294,-0.1295,-0.1286,-0.1309,-0.1297,-0.13,-0.13,-0.1303,-0.1308,-0.1312,-0.1259,-0.1258,-0.1258,0,0,-0.1441,-0.143,-0.1434,-0.1424,-0.1409,-0.1395,-0.1396,-0.1377,-0.1369,-0.1368,-0.1347,-0.1344,-0.1335,-0.1326,-0.132,-0.1346,-0.133,-0.1344,-0.1366,-0.137,-0.1374,-0.1377,-0.1387,-0.1391,-0.1346,-0.1346,-0.1346,0,-0.1463,-0.1459,-0.1438,-0.1438,-0.1433,-0.1407,-0.1412,-0.1403,-0.1387,-0.1384,-0.1373,-0.1362,-0.135,-0.1352,-0.1359,-0.1354,-0.1355,-0.1347,-0.1375,-0.1378,-0.1381,-0.139,-0.1394,-0.1348,-0.1347,-0.1347,-0.1347,0,-0.1487,-0.1485,-0.149,-0.1476,-0.1471,-0.1473,-0.1452,-0.145,-0.1436,-0.1423,-0.1423,-0.1408,-0.1399,-0.1398,-0.1384,-0.1399,-0.1394,-0.1379,-0.1361,-0.1387,-0.1396,-0.1399,-0.135,-0.135,-0.1349,-0.1349,0,0,-0.1536,-0.151,-0.1513,-0.1506,-0.1488,-0.1486,-0.1487,-0.1478,-0.1477,-0.1466,-0.1467,-0.146,-0.1447,-0.144,-0.1425,-0.1429,-0.1452,-0.1415,-0.1414,-0.1423,-0.1468,-0.148,-0.1484,-0.1441,-0.1442,-0.1442,-0.147,0,-0.1562,-0.1563,-0.1545,-0.1551,-0.1549,-0.1525,-0.1526,-0.1515,-0.1503,-0.1499,-0.1486,-0.1482,-0.1464,-0.146,-0.1463,-0.1449,-0.1461,-0.1446,-0.1443,-0.1443,-0.1448,-0.1488,-0.1501,-0.1527,-0.1473,-0.1473,-0.1474,0,-0.1593,-0.1585,-0.1591,-0.1574,-0.1572,-0.1573,-0.1564,-0.1561,-0.1548,-0.1539,-0.1532,-0.1515,-0.1516,-0.1498,-0.1499,-0.1489,-0.1486,-0.1479,-0.148,-0.148,-0.1461,-0.149,-0.1535,-0.1539,-0.1479,-0.1478,-0.1478,0,-0.163,-0.162,-0.1623,-0.1618,-0.1597,-0.1599,-0.159,-0.1577,-0.1573,-0.1564,-0.1562,-0.1554,-0.1549,-0.1543,-0.1525,-0.1514,-0.1528,-0.1509,-0.1521,-0.1522,-0.1526,-0.1526,-0.1572,-0.1523,-0.1523,-0.1523,-0.1522,0,-0.1661,-0.1666,-0.1639,-0.1641,-0.1646,-0.1624,-0.163,-0.1619,-0.1607,-0.1607,-0.1585,-0.1585,-0.156,-0.1558,-0.1543,-0.1547,-0.1544,-0.1538,-0.1534,-0.154,-0.1541,-0.1539,-0.1537,-0.1524,-0.1523,-0.1523,-0.1523,0,-0.1703,-0.1685,-0.1687,-0.1667,-0.1662,-0.1667,-0.165,-0.1651,-0.1638,-0.1638,-0.1636,-0.1615,-0.1611,-0.1592,-0.1583,-0.1573,-0.1582,-0.1574,-0.1587,-0.1584,-0.1599,-0.1598,-0.1645,-0.1651,-0.1597,-0.1598,-0.1598,0,-0.1725,-0.1729,-0.171,-0.1708,-0.17,-0.1698,-0.1694,-0.1672,-0.1669,-0.1656,-0.1659,-0.1653,-0.1647,-0.1641,-0.1625,-0.1619,-0.1611,-0.1628,-0.161,-0.1617,-0.1613,-0.1613,-0.1614,-0.1632,-0.1633,-0.1634,-0.1634,0,-0.1767,-0.1758,-0.1753,-0.1746,-0.1742,-0.1735,-0.1726,-0.1726,-0.1702,-0.17,-0.1696,-0.1691,-0.1683,-0.1677,-0.1668,-0.1659,-0.1643,-0.164,-0.1643,-0.165,-0.1657,-0.1655,-0.1599,-0.1639,-0.1639,-0.1638,-0.1638,-0.1638,-0.18,-0.1803,-0.179,-0.1785,-0.1777,-0.177,-0.177,-0.1757,-0.1753,-0.1745,-0.1732,-0.173,-0.1718,-0.1704,-0.1696,-0.1694,-0.1685,-0.1689,-0.169,-0.1691,-0.1695,-0.1657,-0.1692,-0.1692,-0.1692,-0.1692,-0.1692,0,-0.1842,-0.1832,-0.1828,-0.1818,-0.1815,-0.1799,-0.179,-0.1788,-0.1786,-0.1776,-0.1771,-0.1767,-0.1762,-0.1746,-0.1739,-0.1741,-0.1733,-0.174,-0.174,-0.1739,-0.1703,-0.1702,-0.1746,-0.1746,-0.1746,-0.1746,-0.1746,-0.1746,-0.1863,-0.1866,-0.1856,-0.1855,-0.1846,-0.1844,-0.1839,-0.1833,-0.1825,-0.1821,-0.1817,-0.1806,-0.1794,-0.1787,-0.1782,-0.1777,-0.1776,-0.1786,-0.1779,-0.1746,-0.1741,-0.1736,-0.1735,-0.1785,-0.1785,-0.1815,-0.1815,-0.1815]},{"header":{"parameterUnit":"m.s-1","parameterCategory":1,"la1":30.2991,"la2":30.254,"lo1":-89.0895,"lo2":-89.0444,"dy":0.0017,"dx":0.0017,"nx":28,"ny":28,"refTime":"2024-03-19T21:00:00:Z","depth":0,"parameterNumber":3,"parameterNumberName":"V-component_of_WINDS"},"data":[0,0,0,0,0,0,0,0,0,0,0,0,0,0,0,0,0,0,0,0,0,0,0,0,0,0,0,0,0,0,0,0,0,0,0,0,0,0,0,0,0,0,0,0,0,0,0,0,0,0,0,0,0,0,0,0,0,0,0.3781,0.3782,0,0.3822,0.3822,0.3823,0.3868,0.3869,0.3869,0.387,0.3912,0.3912,0.3912,0,0,0,0,0,0,0,0,0,0,0,0,0,0.3742,0.3743,0.3781,0.3782,0.3782,0.3822,0.3822,0.3823,0.3868,0.3869,0.3869,0.387,0.3911,0.3912,0.3913,0,0,0,0,0,0,0,0,0,0,0,0,0,0.3768,0.3743,0.3781,0.3809,0.3812,0.3821,0.3822,0.3823,0.3868,0.3869,0.387,0.3871,0.3911,0.3912,0.3913,0.3897,0,0,0.3915,0.3915,0,0,0,0,0,0,0,0,0.3767,0.377,0.3805,0.3807,0.3811,0.3841,0.3824,0.3848,0.3867,0.3847,0.387,0.3871,0.3887,0.389,0.3895,0.3899,0.3901,0.3915,0.3915,0.3916,0.3916,0,0,0,0,0,0,0,0.3765,0.3768,0.3797,0.3805,0.3809,0.382,0.3825,0.3828,0.3861,0.3849,0.3852,0.3856,0.3889,0.3895,0.3897,0.3902,0.3915,0.3916,0.3916,0.3916,0.3893,0.3892,0,0,0,0,0,0,0.3759,0.3767,0.3796,0.3798,0.3791,0.382,0.3825,0.383,0.3861,0.3867,0.3855,0.3858,0.3893,0.3896,0.3898,0.3881,0.3916,0.3916,0.3917,0.3894,0.3893,0.3891,0,0,0,0,0,0,0.3758,0.3761,0.3794,0.3783,0.3788,0.3819,0.3825,0.383,0.3836,0.3866,0.3872,0.3855,0.3894,0.3897,0.3897,0.3883,0.3917,0.3917,0.3895,0.3893,0.3892,0.3847,0,0,0,0,0,0,0.3757,0.3761,0.3755,0.3783,0.3789,0.3792,0.3824,0.383,0.3837,0.3841,0.3867,0.3873,0.3895,0.3895,0.3897,0.3885,0.3918,0.3896,0.3894,0.3892,0.3849,0.3844,0.3839,0,0,0,0,0,0.3755,0.3741,0.3755,0.3758,0.3783,0.3791,0.3795,0.382,0.3836,0.383,0.3849,0.3872,0.3884,0.3895,0.3898,0.3885,0.3897,0.3895,0.3893,0.3852,0.3845,0.3839,0,0,0,0,0,0,0.3712,0.3746,0.3761,0.3756,0.377,0.3799,0.3793,0.3812,0.3823,0.3826,0.3858,0.3864,0.3859,0.3872,0.3883,0.3871,0.3894,0.3892,0.3862,0.3856,0.385,0.3847,0.3919,0,0,0,0,0,0.3701,0.3705,0.3735,0.3727,0.3734,0.3762,0.3767,0.3785,0.3801,0.3808,0.3827,0.3842,0.3849,0.3853,0.3862,0.3852,0.3857,0.3844,0.3839,0.3834,0.3832,0.3826,0.382,0.3884,0.3884,0.3884,0,0,0.368,0.3699,0.37,0.3719,0.3733,0.3735,0.3767,0.3769,0.3771,0.3808,0.3808,0.3823,0.3842,0.3836,0.3834,0.3847,0.3816,0.3831,0.3827,0.3828,0.3823,0.3817,0.3812,0.3882,0.3882,0.3882,0,0,0.3643,0.3659,0.3653,0.3666,0.3685,0.3704,0.3703,0.3728,0.3739,0.374,0.3767,0.377,0.3782,0.3794,0.3801,0.3767,0.3787,0.3769,0.3741,0.3734,0.3729,0.3725,0.3712,0.3706,0.3767,0.3767,0.3767,0,0.3615,0.362,0.3648,0.3648,0.3655,0.3688,0.3682,0.3693,0.3715,0.3719,0.3732,0.3747,0.3762,0.3759,0.375,0.3756,0.3754,0.3766,0.3728,0.3724,0.372,0.3708,0.3703,0.3764,0.3764,0.3765,0.3765,0,0.3583,0.3587,0.358,0.3599,0.3605,0.3603,0.3629,0.3632,0.365,0.3667,0.3666,0.3685,0.3697,0.3698,0.3716,0.3697,0.3704,0.3722,0.3746,0.3711,0.37,0.3695,0.3761,0.3762,0.3762,0.3763,0,0,0.352,0.3554,0.3551,0.3559,0.3583,0.3586,0.3584,0.3595,0.3597,0.361,0.3609,0.3618,0.3634,0.3643,0.3662,0.3657,0.3626,0.3676,0.3677,0.3665,0.3605,0.359,0.3584,0.364,0.3639,0.3639,0.3603,0,0.3487,0.3485,0.351,0.3501,0.3504,0.3535,0.3533,0.3547,0.3562,0.3567,0.3584,0.3589,0.3612,0.3617,0.3613,0.3631,0.3614,0.3634,0.3638,0.3638,0.3631,0.3578,0.3563,0.3528,0.3599,0.3598,0.3597,0,0.3447,0.3457,0.3449,0.3471,0.3474,0.3471,0.3483,0.3487,0.3503,0.3515,0.3523,0.3545,0.3544,0.3567,0.3565,0.3578,0.3581,0.359,0.3589,0.359,0.3615,0.3576,0.3517,0.3511,0.3591,0.3591,0.3592,0,0.34,0.3412,0.3408,0.3415,0.3441,0.3439,0.345,0.3467,0.3471,0.3481,0.3485,0.3495,0.35,0.3507,0.353,0.3545,0.3525,0.3551,0.3534,0.3533,0.3528,0.3528,0.3468,0.3532,0.3532,0.3532,0.3532,0,0.3359,0.3353,0.3387,0.3385,0.3378,0.3406,0.3398,0.3412,0.3426,0.3427,0.3455,0.3454,0.3485,0.3488,0.3507,0.3502,0.3504,0.3513,0.3518,0.351,0.3509,0.3512,0.3514,0.3531,0.3531,0.3531,0.3531,0,0.3306,0.3329,0.3326,0.3351,0.3357,0.3351,0.3372,0.337,0.3387,0.3387,0.3389,0.3415,0.342,0.3444,0.3454,0.3467,0.3455,0.3465,0.3449,0.3452,0.3433,0.3434,0.3373,0.3365,0.3435,0.3434,0.3433,0,0.3278,0.3273,0.3297,0.3299,0.3308,0.3311,0.3316,0.3343,0.3347,0.3364,0.336,0.3366,0.3373,0.3379,0.3399,0.3407,0.3417,0.3395,0.3418,0.341,0.3415,0.3415,0.3414,0.3389,0.3388,0.3388,0.3387,0,0.3225,0.3236,0.3242,0.3251,0.3255,0.3264,0.3274,0.3274,0.3304,0.3307,0.3311,0.3317,0.3327,0.3333,0.3344,0.3355,0.3375,0.338,0.3376,0.3367,0.3358,0.3361,0.3434,0.3381,0.3381,0.3382,0.3382,0.3382,0.3182,0.3179,0.3195,0.32,0.321,0.3219,0.3218,0.3234,0.3239,0.3249,0.3264,0.3267,0.3281,0.3298,0.3307,0.3309,0.3321,0.3316,0.3315,0.3313,0.3308,0.3358,0.3311,0.3312,0.3312,0.3312,0.3312,0,0.313,0.3141,0.3145,0.3158,0.3162,0.3181,0.3193,0.3194,0.3196,0.3208,0.3214,0.3219,0.3224,0.3244,0.3252,0.3249,0.3259,0.325,0.325,0.3252,0.3298,0.33,0.3242,0.3242,0.3242,0.3242,0.3242,0.3242,0.3103,0.3098,0.311,0.311,0.3122,0.3124,0.3129,0.3137,0.3146,0.315,0.3155,0.3168,0.3183,0.3191,0.3197,0.3203,0.3203,0.3191,0.32,0.3242,0.3249,0.3255,0.3257,0.3192,0.3192,0.3154,0.3154,0.3153]}]]